Location: *
(37.5724°S, 58.0067°E)
Time: 11:53:28
(UTC+00:00)

USA 229 DEB - Pass Details

Date: 28 November 2021
Orbit: 943 x 1269 km, 63.4° (Epoch: 14 January)

Event Time Altitude Azimuth Distance (km) Brightness Sun altitude
Exits shadow 19:37:27 - 288° (WNW) 3,534 6.3 -30.8°
Reaches altitude 10° 19:38:32 10° 284° (WNW) 3,218 6.1 -30.8°
Maximum altitude 19:45:15 31° 225° (SW) 1,984 5.4 -30.9°
Drops below altitude 10° 19:51:40 10° 164° (SSE) 3,060 6.9 -31.0°
Sets 19:54:42 0° 153° (SSE) 3,971 7.6 -31.0°
